User: anonymous   Login
Location: Brno
(49.2000°N, 16.6330°E)
Time: 08:31:32
(UTC+02:00)
Language:

NOSS 3-4 (A) - Orbit

View from above orbital plane
View from above orbital plane
View from above satellite
View from above satellite

Ground track
Ground track

The orbit data is extracted from the following two-line orbital elements,

1 31701U 07027A   15179.92181258 0.00000000  00000-0  00000-0 0    00
2 31701  63.4020 116.5310 0136000  30.7670 329.2330 13.40684347    01
Epoch (UTC): 28 June 2015 22:07:24
Eccentricity: 0.0136000
inclination: 63.4020°
perigee height: 1005 km
apogee height: 1208 km
right ascension of ascending node: 116.5310°
argument of perigee: 30.7670°
revolutions per day: 13.40684347
mean anomaly at epoch: 329.2330°
orbit number at epoch: 0

The dashed part of the orbit path shows where the satellite is in the earth's shadow,  

DLR